sat.trackr.live / text

‹ back to catalog

STARLINK-35985

NORAD 66815 · 2025-278AA

PAYLOAD ACTIVE UNKNOWN

§ Identity

Operator
Country
US
Launch date
2025-12-01
Launch site
AFETR
Launch vehicle
Mass (kg)
RCS (m²)

Purposes: comms

External: N2YO · Heavens-Above · Gunter

§ Orbital elements

Epoch: 2026-05-25T00:33:16.462080Z

Period
94.27 min
Inclination
43.0030°
Eccentricity
0.0000853
Mean motion
15.27592429 rev/d
Perigee alt
482.4 km
Apogee alt
483.6 km
Semi-major
6,861.1 km
B*
5.0351e-4
RAAN
43.2404°
Arg perigee
267.3674°
Mean anomaly
92.7080°
Rev number
2,809

§ Raw data

STARLINK-359851 66815U 25278AA  26145.02310720  .00013624  00000+0  50351-3 0  99952 66815  43.0030  43.2404 0000853 267.3674  92.7080 15.27592429 28097

JSON: /api/v1/satellites/66815 · /tle

For live sub-satellite position, see the globe view (requires WebGL).

§ Visibility from observer

Set your observer location to see the next 7 days of passes ≥ 10°. The values pass through the URL so the page stays shareable.

No JS? Fill the form by hand. The geolocation button needs JavaScript.